Home > Weather > Ibagué > Past weeks

Flag for Colombia Past Weather in Ibagué, Colombia — Yesterday and Last 2 Weeks

Now
50 °F

Passing clouds.


Feels Like: 47 °F
Forecast: 50 / 72 °F
Wind: 7 mph from Northeast

Location: Bogota / Eldorado

Current Time: Jul 29, 2016 at 5:24:36 AM

Latest Report: Jul 29, 2016 at 5:00 AM


Visibility: N/A

Pressure: 30.30 "Hg (25.96 "Hg at 1281m altitude)

Humidity: 88%

Dew Point: 46 °F

Location of IbaguéLocation

Past Weather in Ibagué — Graph

°F

Ibagué Temperature Yesterday

Maximum temperature yesterday: 64 °F (at 4:00 PM)
Minimum temperature yesterday: 50 °F (at 1:00 AM)
Average temperature yesterday: 57 °F

High & Low Weather Summary for the Past Weeks

 TemperatureHumidityPressure
High68 °F (Jul 14, 1:00 PM)100% (Jul 16, 12:00 PM)30.43 "Hg (Jul 16, 12:00 PM)
Low45 °F (Jul 16, 12:00 PM)38% (Jul 14, 4:00 PM)30.24 "Hg (Jul 26, 4:00 PM)
Average56 °F75%30.34 "Hg
* Reported Jul 14 4:00 AM — Jul 29 4:00 AM, Ibagué, Weather by CustomWeather, © 2016

Note: Actual official high and low records may vary slightly from our data, if they occured in-between our weather recording intervals... More about our weather records

Advertising

Ibagué Weather History for the Previous 24 Hours

Scroll right to see more
 ConditionsComfort  
Time TempWeatherWind HumidityBarometerVisibility
4:00 AM
Fri, Jul 29
52 °FPassing clouds.5 mph88%30.31 "HgN/A
3:00 AM54 °FScattered showers. Passing clouds.2 mph82%30.32 "HgN/A
2:00 AM54 °FScattered showers. Passing clouds.8 mph82%30.33 "HgN/A
1:00 AM54 °FScattered showers. Passing clouds.2 mph77%30.34 "HgN/A
12:00 AM55 °FScattered showers. Passing clouds.3 mph72%30.37 "HgN/A
11:00 PM
Thu, Jul 28
57 °FPassing clouds.8 mph63%30.38 "HgN/A
10:00 PM57 °FPassing clouds.7 mph67%30.36 "HgN/A
9:00 PM57 °FPassing clouds.7 mph67%30.35 "HgN/A
8:00 PM57 °FPassing clouds.7 mph67%30.33 "HgN/A
7:00 PM59 °FPassing clouds.10 mph59%30.31 "HgN/A
6:00 PM61 °FScattered clouds.10 mph52%30.29 "HgN/A
5:00 PM63 °FScattered clouds.12 mph49%30.27 "HgN/A
4:00 PM64 °FScattered clouds.12 mph43%30.26 "HgN/A
3:00 PM63 °FScattered clouds.12 mph49%30.27 "HgN/A
2:00 PM63 °FScattered showers. Scattered clouds.18 mph52%30.29 "HgN/A
1:00 PM63 °FScattered showers. Scattered clouds.18 mph56%30.32 "HgN/A
12:00 PM63 °FScattered showers. Scattered clouds.14 mph56%30.34 "HgN/A
11:00 AM61 °FScattered showers. Partly sunny.12 mph55%30.35 "HgN/A
10:00 AM61 °FScattered showers. Partly sunny.17 mph59%30.35 "HgN/A
9:00 AM57 °FScattered showers. Partly sunny.2 mph72%30.36 "HgN/A
8:00 AM55 °FPartly sunny.5 mph77%30.37 "HgN/A
7:00 AM52 °FScattered showers. Partly sunny.3 mph88%30.34 "HgN/A
6:00 AM52 °FScattered showers. Partly sunny.5 mph82%30.32 "HgN/A
5:00 AM52 °FScattered showers. Partly cloudy.3 mph82%30.32 "HgN/A
Weather by CustomWeather, © 2016

See weather overviewHow to use our weather pages